Weather History for KHRI - July, 2013

Change the Weather History Date:

Monday, July 22, 2013

  Actual Average Record
Temperature  
Mean Temperature 84 °F -  
Max Temperature 99 °F 89 °F 108 °F (1938)
Min Temperature 66 °F 57 °F 43 °F (1934)
Cooling Degree Days 20    
Growing Degree Days 34 (Base 50)    
Moisture  
Dew Point 45 °F    
Average Humidity 29    
Maximum Humidity 56    
Minimum Humidity 12    
Precipitation  
Precipitation 0.00 in - - ()
Sea Level Pressure  
Sea Level Pressure 29.82 in    
Wind  
Wind Speed 8 mph (WSW)    
Max Wind Speed 12 mph    
Max Gust Speed 21 mph    
Visibility 10 miles    
Events      
Averages and records for this station are not official NWS values.
T = Trace of Precipitation, MM = Missing Value Source: NWS Daily Summary

Daily Weather History Graph

Daily Weather History Graph

Search for Another Location

Airport or City:

Trip Planner

Search our weather history database for the weather conditions in past years. The results will help you decide how hot, cold, wet, or windy it might be!

Date:

Astronomy

Jul. 22, 2013 Rise Set
Actual Time 5:29 AM PDT 8:37 PM PDT
Civil Twilight 4:53 AM PDT 9:12 PM PDT
Nautical Twilight 4:06 AM PDT 9:58 PM PDT
Astronomical Twilight 3:10 AM PDT 10:55 PM PDT
Moon 8:21 PM PDT (7/22) 5:35 AM PDT (7/22)
Length of Visible Light 16h 19m
Length of Day
15h 08m
Full, 100% of the Moon is Illuminated
Jul 22
Full
Jul 29
Last Quarter
Aug 6
New
Aug 14
First Quarter
Aug 20
Full

Hourly Weather History & Observations

Time (PDT) Temp. Dew Point Humidity Pressure Visibility Wind Dir Wind Speed Gust Speed Precip Events Conditions
12:53 AM 75.9 °F 50.0 °F 40% 29.75 in 10.0 mi WSW 9.2 mph - N/A   Clear
1:53 AM 73.9 °F 48.9 °F 41% 29.76 in 10.0 mi WSW 10.4 mph - N/A   Clear
2:53 AM 73.9 °F 48.0 °F 40% 29.77 in 10.0 mi WSW 11.5 mph 20.7 mph N/A   Clear
3:53 AM 73.0 °F 46.9 °F 39% 29.78 in 10.0 mi WSW 10.4 mph 17.3 mph N/A   Clear
4:53 AM 71.1 °F 46.0 °F 41% 29.80 in 10.0 mi SW 11.5 mph - N/A   Clear
5:53 AM 70.0 °F 45.0 °F 41% 29.82 in 10.0 mi SW 8.1 mph - N/A   Clear
6:53 AM 72.0 °F 44.1 °F 37% 29.84 in 10.0 mi SSW 6.9 mph - N/A   Clear
7:53 AM 75.0 °F 46.9 °F 37% 29.86 in 10.0 mi WSW 10.4 mph - N/A   Clear
8:53 AM 79.0 °F 46.9 °F 32% 29.86 in 10.0 mi WSW 9.2 mph - N/A   Clear
9:53 AM 82.0 °F 46.9 °F 29% 29.87 in 10.0 mi WNW 9.2 mph - N/A   Clear
10:53 AM 86.0 °F 48.0 °F 27% 29.87 in 10.0 mi West 9.2 mph 16.1 mph N/A   Clear
11:53 AM 89.1 °F 46.0 °F 22% 29.86 in 10.0 mi WSW 8.1 mph - N/A   Clear
12:53 PM 91.0 °F 43.0 °F 19% 29.85 in 10.0 mi WNW 6.9 mph - N/A   Clear
1:53 PM 93.9 °F 43.0 °F 17% 29.84 in 10.0 mi WNW 6.9 mph - N/A   Clear
2:53 PM 96.1 °F 39.9 °F 14% 29.82 in 10.0 mi WNW 8.1 mph - N/A   Clear
3:53 PM 98.1 °F 44.1 °F 16% 29.81 in 10.0 mi West 8.1 mph - N/A   Clear
4:53 PM 99.0 °F 45.0 °F 16% 29.80 in 10.0 mi Variable 5.8 mph - N/A   Clear
5:53 PM 97.0 °F 41.0 °F 14% 29.78 in 10.0 mi Calm Calm - N/A   Clear
6:53 PM 98.1 °F 37.0 °F 12% 29.78 in 10.0 mi Calm Calm - N/A   Clear
7:53 PM 95.0 °F 42.1 °F 16% 29.78 in 10.0 mi Calm Calm - N/A   Clear
8:53 PM 82.9 °F 44.1 °F 25% 29.78 in 10.0 mi South 4.6 mph - N/A   Clear
9:53 PM 80.1 °F 48.0 °F 32% 29.82 in 10.0 mi SW 8.1 mph - 0.00 in   Clear
10:53 PM 75.0 °F 46.0 °F 36% 29.83 in 10.0 mi South 3.5 mph - N/A   Clear
11:53 PM 66.0 °F 50.0 °F 56% 29.86 in 10.0 mi SSE 4.6 mph - N/A   Clear